Port Huron, MI

2:21 PM EDT on August 23, 2019 (GMT -0400)
Saint Clair County International

Weather History for KPHN - June, 2019

Change the Weather History Date:

Thursday, June 13, 2019

  Actual Average (KMTC) Record (KMTC)
Temperature  
Mean Temperature 58 °F -  
Max Temperature 64 °F 77 °F 96 °F (1956)
Min Temperature 53 °F 57 °F 42 °F (1965)
Degree Days  
Heating Degree Days 6    
Growing Degree Days 8 (Base 50)    
Moisture  
Dew Point 53 °F    
Average Humidity 85    
Maximum Humidity 88    
Minimum Humidity 49    
Precipitation  
Precipitation 0.00 in - - ()
Sea Level Pressure  
Sea Level Pressure 29.70 in    
Wind  
Wind Speed 5 mph (NNW)    
Max Wind Speed 12 mph    
Max Gust Speed 18 mph    
Visibility 8 miles    
Events Rain    
Averages and records for this station are not official NWS values.
T = Trace of Precipitation, MM = Missing Value Source: NWS Daily Summary

Daily Weather History Graph

Daily Weather History Graph

Search for Another Location

Airport or City:

Astronomy

Jun. 13, 2019 Rise Set
Actual Time 5:50 AM EDT 9:09 PM EDT
Civil Twilight 5:15 AM EDT 9:44 PM EDT
Nautical Twilight 4:30 AM EDT 10:30 PM EDT
Astronomical Twilight 3:34 AM EDT 11:26 PM EDT
Moon 5:17 PM EDT (6/13) 3:42 AM EDT (6/13)
Length of Visible Light 16h 29m
Length of Day
15h 19m
Waxing Gibbous, 85% of the Moon is Illuminated
Jun 13
Waxing Gibbous
Jun 17
Full
Jun 25
Last Quarter
Jul 2
New
Jul 9
First Quarter

Hourly Weather History & Observations

Time (EDT) Temp. Dew Point Humidity Pressure Visibility Wind Dir Wind Speed Gust Speed Precip Events Conditions
12:17 AM 64.4 °F 44.6 °F 49% 29.78 in 10.0 mi South 11.5 mph - N/A Rain Rain
12:35 AM 62.6 °F 48.2 °F 59% 29.78 in 10.0 mi SSE 9.2 mph 17.3 mph N/A   Drizzle
12:36 AM 62.6 °F 48.2 °F 59% 29.78 in 10.0 mi SSE 8.1 mph 17.3 mph N/A   Drizzle
12:55 AM 60.8 °F 53.6 °F 77% 29.79 in 7.0 mi South 6.9 mph - N/A Rain Rain
1:15 AM 60.8 °F 55.4 °F 82% 29.77 in 10.0 mi Calm Calm - N/A Rain Rain
1:38 AM 60.8 °F 55.4 °F 82% 29.76 in 7.0 mi SSW 3.5 mph - N/A Rain Rain
1:56 AM 60.8 °F 57.2 °F 88% 29.74 in 10.0 mi Calm Calm - N/A Rain Light Rain
2:15 AM 60.8 °F 57.2 °F 88% 29.74 in 10.0 mi Calm Calm - N/A Rain Light Rain
2:35 AM 60.8 °F 57.2 °F 88% 29.73 in 7.0 mi Calm Calm - N/A Rain Rain
2:59 AM 60.8 °F 57.2 °F 88% 29.73 in 10.0 mi NW 4.6 mph - N/A Rain Rain
3:17 AM 59.0 °F 55.4 °F 88% 29.71 in 10.0 mi North 5.8 mph - N/A   Overcast
3:35 AM 57.2 °F 53.6 °F 88% 29.70 in 10.0 mi Calm Calm - N/A   Overcast
3:55 AM 57.2 °F 53.6 °F 88% 29.68 in 10.0 mi North 3.5 mph - N/A   Overcast
4:15 AM 57.2 °F 53.6 °F 88% 29.68 in 10.0 mi Calm Calm - N/A   Overcast
4:20 AM 57.2 °F 53.6 °F 88% 29.68 in 7.0 mi Calm Calm - N/A   Overcast
4:38 AM 57.2 °F 53.6 °F 88% 29.67 in 7.0 mi NE 3.5 mph - N/A   Overcast
4:56 AM 57.2 °F 53.6 °F 88% 29.67 in 7.0 mi NE 3.5 mph - N/A   Overcast
5:15 AM 57.2 °F 53.6 °F 88% 29.66 in 7.0 mi NNE 4.6 mph - N/A   Overcast
5:16 AM 57.2 °F 53.6 °F 88% 29.66 in 7.0 mi NNE 4.6 mph - N/A   Overcast
5:35 AM 57.2 °F 53.6 °F 88% 29.66 in 7.0 mi Calm Calm - N/A   Overcast
5:59 AM 57.2 °F 53.6 °F 88% 29.65 in 7.0 mi NNE 8.1 mph - N/A   Overcast
6:17 AM 57.2 °F 53.6 °F 88% 29.64 in 4.0 mi NNE 8.1 mph - N/A Rain Heavy Rain
6:35 AM 57.2 °F 53.6 °F 88% 29.66 in 3.0 mi WNW 8.1 mph - N/A Rain Heavy Rain
6:36 AM 57.2 °F 53.6 °F 88% 29.66 in 3.0 mi WNW 9.2 mph - N/A Rain Heavy Rain
6:55 AM 57.2 °F 53.6 °F 88% 29.64 in 2.0 mi North 5.8 mph - N/A Rain Heavy Rain
7:15 AM 57.2 °F 53.6 °F 88% 29.65 in 7.0 mi Calm Calm - N/A Rain Light Rain
7:38 AM 57.2 °F 53.6 °F 88% 29.65 in 5.0 mi NE 4.6 mph - N/A Rain Light Rain
7:56 AM 57.2 °F 53.6 °F 88% 29.64 in 4.0 mi North 3.5 mph - N/A Rain Rain
8:15 AM 57.2 °F 53.6 °F 88% 29.63 in 7.0 mi North 4.6 mph - N/A Rain Rain
8:16 AM 57.2 °F 53.6 °F 88% 29.63 in 7.0 mi North 3.5 mph - N/A Rain Rain
8:35 AM 57.2 °F 53.6 °F 88% 29.63 in 7.0 mi North 4.6 mph - N/A   Overcast
8:59 AM 57.2 °F 53.6 °F 88% 29.64 in 7.0 mi North 3.5 mph - N/A   Overcast
9:17 AM 57.2 °F 53.6 °F 88% 29.65 in 7.0 mi North 3.5 mph - N/A   Overcast
9:35 AM 57.2 °F 53.6 °F 88% 29.65 in 7.0 mi NNW 3.5 mph - N/A   Overcast
9:36 AM 57.2 °F 53.6 °F 88% 29.65 in 7.0 mi NNW 3.5 mph - N/A   Overcast
9:55 AM 57.2 °F 53.6 °F 88% 29.65 in 7.0 mi NW 4.6 mph - N/A   Overcast
9:56 AM 57.2 °F 53.6 °F 88% 29.65 in 7.0 mi NNW 4.6 mph - N/A   Overcast
10:15 AM 57.2 °F 53.6 °F 88% 29.66 in 7.0 mi North 3.5 mph - N/A   Overcast
10:38 AM 57.2 °F 53.6 °F 88% 29.65 in 5.0 mi North 3.5 mph - N/A   Overcast
10:56 AM 57.2 °F 53.6 °F 88% 29.65 in 7.0 mi Calm Calm - N/A   Overcast
11:15 AM 59.0 °F 55.4 °F 88% 29.65 in 10.0 mi NNW 3.5 mph - N/A   Overcast
11:16 AM 59.0 °F 55.4 °F 88% 29.65 in 10.0 mi NW 3.5 mph - N/A   Overcast
11:35 AM 59.0 °F 53.6 °F 82% 29.65 in 10.0 mi NW 3.5 mph - N/A   Overcast
11:59 AM 59.0 °F 53.6 °F 82% 29.64 in 10.0 mi Calm Calm - N/A   Overcast
12:17 PM 59.0 °F 53.6 °F 82% 29.65 in 10.0 mi NNW 3.5 mph - N/A   Overcast
12:35 PM 60.8 °F 53.6 °F 77% 29.64 in 10.0 mi Calm Calm - N/A Rain Light Rain
12:55 PM 60.8 °F 53.6 °F 77% 29.64 in 10.0 mi Calm Calm - N/A   Overcast
1:15 PM 60.8 °F 53.6 °F 77% 29.64 in 10.0 mi Calm Calm - N/A   Overcast
1:38 PM 60.8 °F 53.6 °F 77% 29.64 in 10.0 mi Calm Calm - N/A   Light Drizzle
1:55 PM 62.6 °F 53.6 °F 72% 29.63 in 10.0 mi Calm Calm - N/A   Overcast
2:15 PM 62.6 °F 53.6 °F 72% 29.63 in 10.0 mi Calm Calm - N/A   Overcast
2:16 PM 62.6 °F 53.6 °F 72% 29.63 in 10.0 mi Calm Calm - N/A   Overcast
2:35 PM 60.8 °F 53.6 °F 77% 29.64 in 2.0 mi Calm Calm - N/A Rain Heavy Rain
2:59 PM 59.0 °F 53.6 °F 82% 29.64 in 3.0 mi Calm Calm - N/A Rain Rain
3:17 PM 59.0 °F 53.6 °F 82% 29.65 in 10.0 mi NNE 5.8 mph - N/A Rain Rain
3:35 PM 57.2 °F 53.6 °F 88% 29.65 in 7.0 mi NNE 9.2 mph - N/A Rain Rain
3:36 PM 57.2 °F 53.6 °F 88% 29.66 in 7.0 mi North 8.1 mph - N/A Rain Rain
3:55 PM 57.2 °F 53.6 °F 88% 29.66 in 3.0 mi North 4.6 mph - N/A Rain Heavy Rain
4:15 PM 57.2 °F 51.8 °F 82% 29.66 in 7.0 mi NNW 6.9 mph - N/A Rain Light Rain
4:35 PM 57.2 °F 53.6 °F 88% 29.67 in 7.0 mi North 6.9 mph - N/A Rain Light Rain
4:40 PM 57.2 °F 53.6 °F 88% 29.67 in 7.0 mi NNW 4.6 mph - N/A Rain Light Rain
4:58 PM 57.2 °F 53.6 °F 88% 29.67 in 7.0 mi NNW 3.5 mph - N/A Rain Rain
5:15 PM 57.2 °F 53.6 °F 88% 29.68 in 7.0 mi NNW 5.8 mph - N/A Rain Light Rain
5:35 PM 57.2 °F 53.6 °F 88% 29.68 in 5.0 mi NNW 5.8 mph - N/A Rain Rain
5:36 PM 57.2 °F 53.6 °F 88% 29.68 in 5.0 mi NNW 5.8 mph - N/A Rain Rain
5:55 PM 57.2 °F 53.6 °F 88% 29.69 in 7.0 mi NNW 4.6 mph - N/A Rain Light Rain
6:19 PM 57.2 °F 53.6 °F 88% 29.69 in 10.0 mi NW 4.6 mph - N/A   Light Drizzle
6:37 PM 57.2 °F 53.6 °F 88% 29.70 in 10.0 mi NW 3.5 mph - N/A   Drizzle
6:56 PM 57.2 °F 53.6 °F 88% 29.71 in 10.0 mi North 4.6 mph - N/A Rain Rain
7:15 PM 57.2 °F 51.8 °F 82% 29.72 in 3.0 mi NNW 8.1 mph - N/A Rain Rain
7:35 PM 55.4 °F 51.8 °F 88% 29.73 in 5.0 mi NW 5.8 mph - N/A Rain Rain
7:58 PM 55.4 °F 51.8 °F 88% 29.74 in 10.0 mi NNW 10.4 mph 18.4 mph N/A   Drizzle
8:16 PM 55.4 °F 51.8 °F 88% 29.75 in 10.0 mi NNW 8.1 mph - N/A Rain Light Rain
8:35 PM 55.4 °F 51.8 °F 88% 29.76 in 10.0 mi NW 11.5 mph 17.3 mph N/A Rain Light Rain
8:55 PM 55.4 °F 50.0 °F 82% 29.77 in 10.0 mi NW 9.2 mph 16.1 mph N/A Rain Light Rain
8:56 PM 55.4 °F 50.0 °F 82% 29.77 in 10.0 mi NW 8.1 mph - N/A Rain Light Rain
9:19 PM 55.4 °F 50.0 °F 82% 29.77 in 10.0 mi NW 9.2 mph - N/A Rain Rain
9:37 PM 53.6 °F 50.0 °F 88% 29.79 in 10.0 mi NW 6.9 mph - N/A   Drizzle
9:55 PM 53.6 °F 50.0 °F 88% 29.79 in 10.0 mi NW 8.1 mph 16.1 mph N/A   Drizzle
10:15 PM 53.6 °F 50.0 °F 88% 29.81 in 10.0 mi NW 9.2 mph 17.3 mph N/A   Drizzle
10:16 PM 53.6 °F 50.0 °F 88% 29.81 in 10.0 mi NW 8.1 mph 17.3 mph N/A   Drizzle
10:35 PM 53.6 °F 50.0 °F 88% 29.82 in 10.0 mi NW 9.2 mph 16.1 mph N/A   Drizzle
10:40 PM 53.6 °F 48.2 °F 82% 29.82 in 10.0 mi NW 8.1 mph 16.1 mph N/A   Drizzle
10:57 PM 53.6 °F 50.0 °F 88% 29.83 in 10.0 mi NW 5.8 mph - N/A Rain Rain
11:16 PM 53.6 °F 50.0 °F 88% 29.84 in 10.0 mi WNW 6.9 mph - N/A   Drizzle
11:35 PM 53.6 °F 50.0 °F 88% 29.84 in 10.0 mi WNW 5.8 mph - N/A Rain Light Rain
11:55 PM 53.6 °F 50.0 °F 88% 29.84 in 10.0 mi West 4.6 mph - N/A   Overcast
11:56 PM 53.6 °F 50.0 °F 88% 29.84 in 10.0 mi West 4.6 mph - N/A   Overcast